FW9848 Weather Reports


Display with metric or nautical units.
time (UTC)temp
F
wind
direction
speed
MPH
gust
MPH
rain 1hr
in
rain 24hr
in
rain mn
in
humidity
%
barometer
mb
20260506153108 76 0 0.0 0.0 0.00 0.00 0.00 82 1012.3
20260506151551 77 0 0.0 0.0 0.00 0.00 0.00 82 1012.0
20260506150100 77 0 0.0 0.0 0.00 0.00 0.00 82 1011.8
20260506144556 76 0 0.0 0.0 0.00 0.00 0.00 82 1011.8
20260506143050 76 0 0.0 0.0 0.00 0.00 0.00 82 1011.6
20260506141553 76 0 0.0 0.0 0.00 0.00 0.00 82 1011.4
20260506140054 75 0 0.0 0.0 0.00 0.00 0.00 82 1011.1
20260506134554 75 0 0.0 1.0 0.00 0.00 0.00 81 1010.8
20260506133048 75 0 0.0 3.0 0.00 0.00 0.00 81 1010.5
20260506131554 75 0 0.0 4.0 0.00 0.00 0.00 81 1010.5
20260506130050 75 0 0.0 4.0 0.00 0.00 0.00 80 1010.2
20260506124550 74 72 0.0 2.0 0.00 0.00 0.00 78 1010.3
20260506123051 74 0 0.0 1.0 0.00 0.00 0.00 78 1010.3
20260506121555 74 0 0.0 0.0 0.00 0.00 0.00 78 1010.3
20260506120053 74 0 0.0 0.0 0.00 0.00 0.00 78 1010.3
20260506114553 74 0 0.0 0.0 0.00 0.00 0.00 78 1010.2
20260506113056 74 0 0.0 0.0 0.00 0.00 0.00 79 1010.1
20260506111547 74 0 0.0 0.0 0.00 0.00 0.00 79 1010.3
20260506110054 74 0 0.0 0.0 0.00 0.00 0.00 79 1010.2
20260506104555 74 0 0.0 0.0 0.00 0.00 0.00 80 1010.1
20260506103056 75 0 0.0 0.0 0.00 0.00 0.00 80 1009.9
20260506101552 74 0 0.0 0.0 0.00 0.00 0.00 80 1010.0
20260506100055 74 0 0.0 0.0 0.00 0.00 0.00 80 1009.9
20260506094552 74 0 0.0 0.0 0.00 0.00 0.00 79 1010.0
20260506093053 74 0 0.0 0.0 0.00 0.00 0.00 79 1009.9
20260506091558 74 0 0.0 0.0 0.00 0.00 0.00 79 1009.9
20260506090059 74 0 0.0 0.0 0.00 0.00 0.00 79 1010.1
20260506084552 75 0 0.0 0.0 0.00 0.00 0.00 81 1010.0
20260506083056 75 0 0.0 0.0 0.00 0.00 0.00 82 1010.2
20260506081557 75 0 0.0 0.0 0.00 0.00 0.00 82 1010.2
20260506080104 75 0 0.0 1.0 0.00 0.00 0.00 82 1010.2
20260506073054 75 0 0.0 0.0 0.00 0.00 0.00 82 1010.2
20260506071602 75 0 0.0 0.0 0.00 0.00 0.00 82 1010.3
20260506061549 76 57 0.0 5.0 0.00 0.00 0.00 82 1010.4
20260506044553 77 59 1.0 6.0 0.00 0.00 0.00 82 1010.2
20260506043048 77 0 0.0 3.0 0.00 0.00 0.00 82 1010.2
20260506041550 77 55 1.0 4.0 0.00 0.00 0.00 82 1010.0
20260506040051 78 0 1.0 6.0 0.00 0.00 0.00 82 1009.9
20260506034603 78 61 1.0 7.0 0.00 0.00 0.00 81 1009.8
20260506033051 79 0 1.0 6.0 0.00 0.00 0.00 81 1009.6
20260506031552 79 0 0.0 7.0 0.00 0.00 0.00 80 1009.5
20260506030048 80 0 0.0 4.0 0.00 0.00 0.00 79 1009.3
20260506024607 80 0 0.0 4.0 0.00 0.00 0.00 78 1009.1
20260506023051 81 0 0.0 6.0 0.00 0.00 0.00 77 1008.8
20260506021552 82 0 0.0 4.0 0.00 0.00 0.00 74 1008.7
20260506020049 83 0 0.0 5.0 0.00 0.00 0.00 72 1008.6
20260506014551 83 0 0.0 3.0 0.00 0.00 0.00 71 1008.1
20260506013107 84 0 0.0 0.0 0.00 0.00 0.00 71 1007.8
20260506011604 84 0 0.0 0.0 0.00 0.00 0.00 70 1007.6
20260506010056 84 0 0.0 0.0 0.00 0.00 0.00 69 1007.4
20260506004556 85 0 0.0 0.0 0.00 0.00 0.00 68 1007.3
20260506003049 86 0 0.0 0.0 0.00 0.00 0.00 67 1007.3
20260506001556 87 0 0.0 0.0 0.00 0.00 0.00 65 1007.3
20260506000101 87 0 0.0 0.0 0.00 0.00 0.00 65 1007.2
20260505234559 89 0 0.0 0.0 0.00 0.00 0.00 62 1007.2
20260505233054 89 0 0.0 0.0 0.00 0.00 0.00 62 1007.2
20260505231554 87 0 0.0 0.0 0.00 0.00 0.00 62 1007.2
20260505230105 89 0 0.0 0.0 0.00 0.00 0.00 60 1007.1
20260505224602 88 0 0.0 0.0 0.00 0.00 0.00 63 1007.2
20260505223107 88 0 0.0 0.0 0.00 0.00 0.00 62 1007.2
20260505221555 88 0 0.0 0.0 0.00 0.00 0.00 63 1007.2
20260505220053 88 0 2.0 6.0 0.00 0.00 0.00 60 1007.5
20260505214550 88 0 0.0 8.0 0.00 0.00 0.00 61 1007.6
20260505213056 88 0 0.0 3.0 0.00 0.00 0.00 63 1007.9
20260505211553 88 0 0.0 0.0 0.00 0.00 0.00 64 1008.0
20260505210050 87 0 0.0 3.0 0.00 0.00 0.00 64 1008.3
20260505204556 87 176 1.0 7.0 0.00 0.00 0.00 63 1008.6
20260505203102 86 0 0.0 8.0 0.00 0.00 0.00 64 1008.8
20260505201550 88 0 0.0 0.0 0.00 0.00 0.00 65 1009.2
20260505200051 86 0 0.0 0.0 0.00 0.00 0.00 66 1009.2
20260505194604 85 0 0.0 0.0 0.00 0.00 0.00 66 1009.4
20260505193052 84 0 0.0 8.0 0.00 0.00 0.00 69 1009.6
20260505191553 85 0 0.0 5.0 0.00 0.00 0.00 69 1009.7
20260505190052 85 0 0.0 7.0 0.00 0.00 0.00 67 1009.9
20260505184552 85 0 0.0 0.0 0.00 0.00 0.00 66 1010.1
20260505183059 84 0 0.0 8.0 0.00 0.00 0.00 66 1010.3
20260505181553 84 0 0.0 8.0 0.00 0.00 0.00 69 1010.6
20260505180053 83 0 1.0 7.0 0.00 0.00 0.00 72 1010.4
20260505174557 82 0 2.0 9.0 0.00 0.00 0.00 74 1010.7
20260505173051 81 0 0.0 5.0 0.00 0.00 0.00 73 1010.7
20260505171556 79 0 1.0 8.0 0.00 0.00 0.00 76 1010.8
20260505170056 78 0 0.0 0.0 0.00 0.00 0.00 79 1010.8
20260505164559 77 0 0.0 7.0 0.00 0.00 0.00 80 1010.8
20260505163055 75 0 0.0 0.0 0.00 0.00 0.00 82 1010.8
20260505161549 75 190 0.0 6.0 0.00 0.00 0.00 82 1010.9